Weather History for Fort Leonard Wood, MO

Change the Weather History Date:

Thursday, May 24, 2012

  Actual Average Record
Temperature  
Mean Temperature 77 °F -  
Max Temperature 88 °F 75 °F 89 °F (2000)
Min Temperature 66 °F 57 °F 44 °F (2001)
Cooling Degree Days 12    
Growing Degree Days 27 (Base 50)    
Moisture  
Dew Point 56 °F    
Average Humidity 48    
Maximum Humidity 66    
Minimum Humidity 33    
Precipitation  
Precipitation 0.00 in - - ()
Sea Level Pressure  
Sea Level Pressure 29.60 in    
Wind  
Wind Speed 14 mph (SSE)    
Max Wind Speed 23 mph    
Max Gust Speed 36 mph    
Visibility 10 miles    
Events      
Averages and records for this station are not official NWS values.
T = Trace of Precipitation, MM = Missing Value Source: NWS Daily Summary

Daily Weather History Graph

Daily Weather History Graph

Search for Another Location

Airport:

Trip Planner

Search our weather history database for the weather conditions in past years. The results will help you decide how hot, cold, wet, or windy it might be!

Date:

Astronomy

May. 24, 2012 Rise Set
Actual Time 5:51 AM CDT 8:19 PM CDT
Civil Twilight 5:21 AM CDT 8:49 PM CDT
Nautical Twilight 4:44 AM CDT 9:26 PM CDT
Astronomical Twilight 4:03 AM CDT 10:08 PM CDT
Moon 8:51 AM CDT (5/24) 11:21 PM CDT (5/24)
Length of Visible Light 15h 27m
Length of Day
14h 27m
Waxing Crescent, 12% of the Moon is Illuminated
May 24
Waxing Crescent
May 28
First Quarter
Jun 4
Full
Jun 11
Last Quarter
Jun 19
New

Hourly Weather History & Observations

Time (CDT) Temp. Heat Index Dew Point Humidity Pressure Visibility Wind Dir Wind Speed Gust Speed Precip Events Conditions
12:55 AM 69.8 °F - 47.3 °F 45% 29.64 in 10.0 mi SSE 15.0 mph 21.9 mph N/A   Clear
1:55 AM 69.6 °F - 46.6 °F 44% 29.63 in 10.0 mi SSE 13.8 mph 19.6 mph N/A   Clear
2:55 AM 68.9 °F - 46.9 °F 45% 29.60 in 10.0 mi SSE 12.7 mph 19.6 mph N/A   Clear
3:55 AM 68.2 °F - 48.9 °F 50% 29.59 in 10.0 mi SSE 11.5 mph - N/A   Clear
4:55 AM 67.8 °F - 51.8 °F 56% 29.59 in 10.0 mi SSE 12.7 mph 20.7 mph N/A   Clear
5:55 AM 66.6 °F - 53.4 °F 63% 29.59 in 10.0 mi SSE 13.8 mph - N/A   Clear
6:55 AM 66.9 °F - 55.4 °F 66% 29.59 in 10.0 mi SSE 13.8 mph - N/A   Clear
7:55 AM 69.8 °F - 57.7 °F 65% 29.58 in 10.0 mi SE 16.1 mph 21.9 mph N/A   Clear
8:55 AM 74.7 °F - 57.7 °F 55% 29.58 in 10.0 mi SSE 18.4 mph 24.2 mph N/A   Clear
9:55 AM 79.2 °F - 55.4 °F 44% 29.59 in 10.0 mi South 13.8 mph 21.9 mph N/A   Clear
10:55 AM 83.5 °F - 52.9 °F 35% 29.60 in 10.0 mi South 16.1 mph 26.5 mph N/A   Clear
11:55 AM 85.5 °F 84.3 °F 56.3 °F 37% 29.58 in 10.0 mi South 16.1 mph 27.6 mph N/A   Clear
12:55 PM 86.9 °F 85.3 °F 55.0 °F 34% 29.55 in 10.0 mi South 19.6 mph 35.7 mph N/A   Clear
1:55 PM 88.3 °F 86.7 °F 56.1 °F 33% 29.57 in 10.0 mi SSE 23.0 mph 28.8 mph N/A   Clear
2:55 PM 88.2 °F 87.1 °F 58.3 °F 36% 29.56 in 10.0 mi South 15.0 mph 29.9 mph N/A   Partly Cloudy
3:55 PM 86.7 °F 86.8 °F 60.8 °F 42% 29.58 in 10.0 mi South 11.5 mph 21.9 mph N/A   Clear
4:55 PM 86.2 °F 86.3 °F 61.5 °F 43% 29.59 in 10.0 mi South 11.5 mph 18.4 mph N/A   Overcast
5:55 PM 85.5 °F 86.1 °F 62.4 °F 46% 29.58 in 10.0 mi South 16.1 mph 23.0 mph N/A   Mostly Cloudy
6:55 PM 84.0 °F 85.2 °F 63.3 °F 50% 29.59 in 10.0 mi South 10.4 mph 17.3 mph N/A   Mostly Cloudy
7:55 PM 81.5 °F 83.1 °F 64.2 °F 56% 29.61 in 10.0 mi South 9.2 mph 18.4 mph N/A   Clear
8:55 PM 80.6 °F 82.3 °F 64.4 °F 58% 29.64 in 10.0 mi South 6.9 mph - N/A   Overcast
9:55 PM 79.7 °F - 64.9 °F 61% 29.70 in 10.0 mi SSW 3.5 mph - N/A   Overcast